Location: American Canyon
(38.1966°N, 122.1514°W)
Time: 13:19:32
(UTC+00:00)

Cosmos 2322 Rocket - Pass Details

Date: 29 October 2020
Orbit: 833 x 851 km, 71.0° (Epoch: 01 December)

Event Time Altitude Azimuth Distance (km) Brightness Sun altitude
Rises 13:22:49 0° 346° (NNW) 3,416 5.1 -14.2°
Reaches altitude 10° 13:25:31 10° 355° (N) 2,474 4.5 -13.6°
Maximum altitude 13:30:38 34° 60° (ENE) 1,365 3.8 -12.6°
Drops below altitude 10° 13:35:42 10° 124° (SE) 2,450 5.7 -11.7°
Sets 13:38:21 0° 134° (SE) 3,378 6.3 -11.1°
